Location: Unspecified
(35.6961°N, 0.0000°E)
Time: 01:42:42
(UTC+00:00)

UNISAT 6 - Visible Passes

Search period start: 16 June 2019 00:00
Search period end: 26 June 2019 00:00
Orbit: 606 x 690 km, 97.8° (Epoch: 15 June)

Date Brightness Start Highest point End Pass type
(mag) Time Alt. Az. Time Alt. Az. Time Alt. Az.
16 Jun ? 20:48:21 10° NNE 20:52:38 71° ESE 20:55:42 19° S visible
17 Jun ? 21:14:25 10° N 21:18:36 55° WNW 21:22:04 15° SSW visible
18 Jun ? 20:04:34 10° NE 20:07:51 21° E 20:10:40 12° SE visible
18 Jun ? 21:40:52 10° NNW 21:44:30 27° WNW 21:48:10 10° SW visible
19 Jun ? 20:29:53 10° NNE 20:33:59 42° E 20:37:02 17° SSE visible
19 Jun ? 22:07:58 10° NW 22:10:18 15° WNW 22:12:40 10° W visible
20 Jun ? 20:55:41 10° NNE 21:00:01 88° ESE 21:03:24 17° SSW visible
21 Jun ? 19:47:03 10° ENE 19:49:06 13° E 19:51:09 10° ESE visible
21 Jun ? 21:21:52 10° N 21:25:57 44° WNW 21:29:45 12° SW visible
22 Jun ? 20:11:38 10° NE 20:15:17 26° E 20:18:21 13° SSE visible
22 Jun ? 21:48:26 10° NNW 21:51:50 23° WNW 21:55:16 10° WSW visible
23 Jun ? 20:37:08 10° NNE 20:41:23 53° E 20:44:43 16° S visible
23 Jun ? 22:15:56 10° NW 22:17:37 12° WNW 22:19:18 10° W visible
24 Jun ? 21:03:03 10° N 21:07:23 75° WNW 21:11:04 15° SSW visible
25 Jun ? 19:53:46 10° NE 19:56:34 16° E 19:59:21 10° SE visible
25 Jun ? 21:29:20 10° N 21:33:20 36° WNW 21:37:23 10° SW visible
